Index of /20260430/WXO-DD/model_rdps/10km/12/014
Name Last modified Size Description
Parent Directory -
20260430T12Z_MSC_RDPS_AbsoluteVorticity_IsbL-0250_RLatLon0.09_PT014H.grib2 2026-04-30 14:43 620K
20260430T12Z_MSC_RDPS_AbsoluteVorticity_IsbL-0500_RLatLon0.09_PT014H.grib2 2026-04-30 14:43 567K
20260430T12Z_MSC_RDPS_AbsoluteVorticity_IsbL-0700_RLatLon0.09_PT014H.grib2 2026-04-30 14:43 632K
20260430T12Z_MSC_RDPS_AbsoluteVorticity_IsbL-0850_RLatLon0.09_PT014H.grib2 2026-04-30 14:43 770K
20260430T12Z_MSC_RDPS_AirTemp_AGL-120m_RLatLon0.09_PT014H.grib2 2026-04-30 14:43 383K
20260430T12Z_MSC_RDPS_AirTemp_AGL-2m_RLatLon0.09_PT014H.grib2 2026-04-30 14:43 620K
20260430T12Z_MSC_RDPS_AirTemp_AGL-40m_RLatLon0.09_PT014H.grib2 2026-04-30 14:43 395K
20260430T12Z_MSC_RDPS_AirTemp_AGL-80m_RLatLon0.09_PT014H.grib2 2026-04-30 14:43 387K
20260430T12Z_MSC_RDPS_AirTemp_IsbL-0001_RLatLon0.09_PT014H.grib2 2026-04-30 14:43 252K
20260430T12Z_MSC_RDPS_AirTemp_IsbL-0005_RLatLon0.09_PT014H.grib2 2026-04-30 14:43 282K
20260430T12Z_MSC_RDPS_AirTemp_IsbL-0010_RLatLon0.09_PT014H.grib2 2026-04-30 14:43 296K
20260430T12Z_MSC_RDPS_AirTemp_IsbL-0020_RLatLon0.09_PT014H.grib2 2026-04-30 14:43 308K
20260430T12Z_MSC_RDPS_AirTemp_IsbL-0030_RLatLon0.09_PT014H.grib2 2026-04-30 14:43 331K
20260430T12Z_MSC_RDPS_AirTemp_IsbL-0050_RLatLon0.09_PT014H.grib2 2026-04-30 14:43 306K
20260430T12Z_MSC_RDPS_AirTemp_IsbL-0100_RLatLon0.09_PT014H.grib2 2026-04-30 14:43 418K
20260430T12Z_MSC_RDPS_AirTemp_IsbL-0150_RLatLon0.09_PT014H.grib2 2026-04-30 14:43 423K
20260430T12Z_MSC_RDPS_AirTemp_IsbL-0175_RLatLon0.09_PT014H.grib2 2026-04-30 14:43 412K
20260430T12Z_MSC_RDPS_AirTemp_IsbL-0200_RLatLon0.09_PT014H.grib2 2026-04-30 14:43 417K
20260430T12Z_MSC_RDPS_AirTemp_IsbL-0225_RLatLon0.09_PT014H.grib2 2026-04-30 14:43 418K
20260430T12Z_MSC_RDPS_AirTemp_IsbL-0250_RLatLon0.09_PT014H.grib2 2026-04-30 14:43 428K
20260430T12Z_MSC_RDPS_AirTemp_IsbL-0275_RLatLon0.09_PT014H.grib2 2026-04-30 14:43 407K
20260430T12Z_MSC_RDPS_AirTemp_IsbL-0300_RLatLon0.09_PT014H.grib2 2026-04-30 14:43 413K
20260430T12Z_MSC_RDPS_AirTemp_IsbL-0350_RLatLon0.09_PT014H.grib2 2026-04-30 14:43 426K
20260430T12Z_MSC_RDPS_AirTemp_IsbL-0400_RLatLon0.09_PT014H.grib2 2026-04-30 14:43 427K
20260430T12Z_MSC_RDPS_AirTemp_IsbL-0450_RLatLon0.09_PT014H.grib2 2026-04-30 14:43 398K
20260430T12Z_MSC_RDPS_AirTemp_IsbL-0500_RLatLon0.09_PT014H.grib2 2026-04-30 14:43 409K
20260430T12Z_MSC_RDPS_AirTemp_IsbL-0550_RLatLon0.09_PT014H.grib2 2026-04-30 14:43 428K
20260430T12Z_MSC_RDPS_AirTemp_IsbL-0600_RLatLon0.09_PT014H.grib2 2026-04-30 14:43 450K
20260430T12Z_MSC_RDPS_AirTemp_IsbL-0650_RLatLon0.09_PT014H.grib2 2026-04-30 14:43 465K
20260430T12Z_MSC_RDPS_AirTemp_IsbL-0700_RLatLon0.09_PT014H.grib2 2026-04-30 14:43 381K
20260430T12Z_MSC_RDPS_AirTemp_IsbL-0750_RLatLon0.09_PT014H.grib2 2026-04-30 14:43 408K
20260430T12Z_MSC_RDPS_AirTemp_IsbL-0800_RLatLon0.09_PT014H.grib2 2026-04-30 14:43 442K
20260430T12Z_MSC_RDPS_AirTemp_IsbL-0850_RLatLon0.09_PT014H.grib2 2026-04-30 14:43 483K
20260430T12Z_MSC_RDPS_AirTemp_IsbL-0875_RLatLon0.09_PT014H.grib2 2026-04-30 14:43 502K
20260430T12Z_MSC_RDPS_AirTemp_IsbL-0900_RLatLon0.09_PT014H.grib2 2026-04-30 14:43 513K
20260430T12Z_MSC_RDPS_AirTemp_IsbL-0925_RLatLon0.09_PT014H.grib2 2026-04-30 14:43 513K
20260430T12Z_MSC_RDPS_AirTemp_IsbL-0950_RLatLon0.09_PT014H.grib2 2026-04-30 14:43 515K
20260430T12Z_MSC_RDPS_AirTemp_IsbL-0970_RLatLon0.09_PT014H.grib2 2026-04-30 14:43 510K
20260430T12Z_MSC_RDPS_AirTemp_IsbL-0985_RLatLon0.09_PT014H.grib2 2026-04-30 14:43 501K
20260430T12Z_MSC_RDPS_AirTemp_IsbL-1000_RLatLon0.09_PT014H.grib2 2026-04-30 14:43 485K
20260430T12Z_MSC_RDPS_AirTemp_IsbL-1015_RLatLon0.09_PT014H.grib2 2026-04-30 14:43 482K
20260430T12Z_MSC_RDPS_Albedo_Sfc_RLatLon0.09_PT014H.grib2 2026-04-30 14:43 162K
20260430T12Z_MSC_RDPS_CAPE_Sfc_RLatLon0.09_PT014H.grib2 2026-04-30 14:43 1.6M
20260430T12Z_MSC_RDPS_CIN_Sfc_RLatLon0.09_PT014H.grib2 2026-04-30 14:43 1.2M
20260430T12Z_MSC_RDPS_CloudWater_EAtm_RLatLon0.09_PT014H.grib2 2026-04-30 14:43 221K
20260430T12Z_MSC_RDPS_ConvectivePrecip-Accum_Sfc_RLatLon0.09_PT014H.grib2 2026-04-30 14:43 686K
20260430T12Z_MSC_RDPS_DewPointDepression_AGL-2m_RLatLon0.09_PT014H.grib2 2026-04-30 14:43 398K
20260430T12Z_MSC_RDPS_DewPointDepression_IsbL-0001_RLatLon0.09_PT014H.grib2 2026-04-30 14:43 193
20260430T12Z_MSC_RDPS_DewPointDepression_IsbL-0005_RLatLon0.09_PT014H.grib2 2026-04-30 14:43 193
20260430T12Z_MSC_RDPS_DewPointDepression_IsbL-0010_RLatLon0.09_PT014H.grib2 2026-04-30 14:43 193
20260430T12Z_MSC_RDPS_DewPointDepression_IsbL-0020_RLatLon0.09_PT014H.grib2 2026-04-30 14:43 193
20260430T12Z_MSC_RDPS_DewPointDepression_IsbL-0030_RLatLon0.09_PT014H.grib2 2026-04-30 14:43 193
20260430T12Z_MSC_RDPS_DewPointDepression_IsbL-0050_RLatLon0.09_PT014H.grib2 2026-04-30 14:43 81K
20260430T12Z_MSC_RDPS_DewPointDepression_IsbL-0100_RLatLon0.09_PT014H.grib2 2026-04-30 14:43 129K
20260430T12Z_MSC_RDPS_DewPointDepression_IsbL-0150_RLatLon0.09_PT014H.grib2 2026-04-30 14:43 150K
20260430T12Z_MSC_RDPS_DewPointDepression_IsbL-0175_RLatLon0.09_PT014H.grib2 2026-04-30 14:43 181K
20260430T12Z_MSC_RDPS_DewPointDepression_IsbL-0200_RLatLon0.09_PT014H.grib2 2026-04-30 14:43 220K
20260430T12Z_MSC_RDPS_DewPointDepression_IsbL-0225_RLatLon0.09_PT014H.grib2 2026-04-30 14:43 265K
20260430T12Z_MSC_RDPS_DewPointDepression_IsbL-0250_RLatLon0.09_PT014H.grib2 2026-04-30 14:43 305K
20260430T12Z_MSC_RDPS_DewPointDepression_IsbL-0275_RLatLon0.09_PT014H.grib2 2026-04-30 14:43 310K
20260430T12Z_MSC_RDPS_DewPointDepression_IsbL-0300_RLatLon0.09_PT014H.grib2 2026-04-30 14:43 331K
20260430T12Z_MSC_RDPS_DewPointDepression_IsbL-0350_RLatLon0.09_PT014H.grib2 2026-04-30 14:43 336K
20260430T12Z_MSC_RDPS_DewPointDepression_IsbL-0400_RLatLon0.09_PT014H.grib2 2026-04-30 14:43 345K
20260430T12Z_MSC_RDPS_DewPointDepression_IsbL-0450_RLatLon0.09_PT014H.grib2 2026-04-30 14:43 350K
20260430T12Z_MSC_RDPS_DewPointDepression_IsbL-0500_RLatLon0.09_PT014H.grib2 2026-04-30 14:43 353K
20260430T12Z_MSC_RDPS_DewPointDepression_IsbL-0550_RLatLon0.09_PT014H.grib2 2026-04-30 14:43 366K
20260430T12Z_MSC_RDPS_DewPointDepression_IsbL-0600_RLatLon0.09_PT014H.grib2 2026-04-30 14:43 381K
20260430T12Z_MSC_RDPS_DewPointDepression_IsbL-0650_RLatLon0.09_PT014H.grib2 2026-04-30 14:43 387K
20260430T12Z_MSC_RDPS_DewPointDepression_IsbL-0700_RLatLon0.09_PT014H.grib2 2026-04-30 14:43 398K
20260430T12Z_MSC_RDPS_DewPointDepression_IsbL-0750_RLatLon0.09_PT014H.grib2 2026-04-30 14:43 415K
20260430T12Z_MSC_RDPS_DewPointDepression_IsbL-0800_RLatLon0.09_PT014H.grib2 2026-04-30 14:43 441K
20260430T12Z_MSC_RDPS_DewPointDepression_IsbL-0850_RLatLon0.09_PT014H.grib2 2026-04-30 14:43 462K
20260430T12Z_MSC_RDPS_DewPointDepression_IsbL-0875_RLatLon0.09_PT014H.grib2 2026-04-30 14:43 468K
20260430T12Z_MSC_RDPS_DewPointDepression_IsbL-0900_RLatLon0.09_PT014H.grib2 2026-04-30 14:43 463K
20260430T12Z_MSC_RDPS_DewPointDepression_IsbL-0925_RLatLon0.09_PT014H.grib2 2026-04-30 14:43 449K
20260430T12Z_MSC_RDPS_DewPointDepression_IsbL-0950_RLatLon0.09_PT014H.grib2 2026-04-30 14:43 442K
20260430T12Z_MSC_RDPS_DewPointDepression_IsbL-0970_RLatLon0.09_PT014H.grib2 2026-04-30 14:43 432K
20260430T12Z_MSC_RDPS_DewPointDepression_IsbL-0985_RLatLon0.09_PT014H.grib2 2026-04-30 14:43 426K
20260430T12Z_MSC_RDPS_DewPointDepression_IsbL-1000_RLatLon0.09_PT014H.grib2 2026-04-30 14:43 419K
20260430T12Z_MSC_RDPS_DewPointDepression_IsbL-1015_RLatLon0.09_PT014H.grib2 2026-04-30 14:43 408K
20260430T12Z_MSC_RDPS_DewPoint_AGL-2m_RLatLon0.09_PT014H.grib2 2026-04-30 14:43 304K
20260430T12Z_MSC_RDPS_DownwardLongwaveRadiationFlux-Accum_Sfc_RLatLon0.09_PT014H.grib2 2026-04-30 14:43 492K
20260430T12Z_MSC_RDPS_DownwardShortwaveRadiationFlux-Accum_NTAtm_RLatLon0.09_PT014H.grib2 2026-04-30 14:43 105K
20260430T12Z_MSC_RDPS_DownwardShortwaveRadiationFlux-Accum_Sfc_RLatLon0.09_PT014H.grib2 2026-04-30 14:43 594K
20260430T12Z_MSC_RDPS_FreezingRain-Accum1h_Sfc_RLatLon0.09_PT014H.grib2 2026-04-30 14:43 21K
20260430T12Z_MSC_RDPS_FreezingRain-Accum_Sfc_RLatLon0.09_PT014H.grib2 2026-04-30 14:43 75K
20260430T12Z_MSC_RDPS_GeopotentialHeight_IsbL-0001_RLatLon0.09_PT014H.grib2 2026-04-30 14:43 235K
20260430T12Z_MSC_RDPS_GeopotentialHeight_IsbL-0005_RLatLon0.09_PT014H.grib2 2026-04-30 14:43 296K
20260430T12Z_MSC_RDPS_GeopotentialHeight_IsbL-0010_RLatLon0.09_PT014H.grib2 2026-04-30 14:43 298K
20260430T12Z_MSC_RDPS_GeopotentialHeight_IsbL-0020_RLatLon0.09_PT014H.grib2 2026-04-30 14:43 297K
20260430T12Z_MSC_RDPS_GeopotentialHeight_IsbL-0030_RLatLon0.09_PT014H.grib2 2026-04-30 14:43 299K
20260430T12Z_MSC_RDPS_GeopotentialHeight_IsbL-0050_RLatLon0.09_PT014H.grib2 2026-04-30 14:43 301K
20260430T12Z_MSC_RDPS_GeopotentialHeight_IsbL-0100_RLatLon0.09_PT014H.grib2 2026-04-30 14:43 280K
20260430T12Z_MSC_RDPS_GeopotentialHeight_IsbL-0150_RLatLon0.09_PT014H.grib2 2026-04-30 14:43 225K
20260430T12Z_MSC_RDPS_GeopotentialHeight_IsbL-0175_RLatLon0.09_PT014H.grib2 2026-04-30 14:43 259K
20260430T12Z_MSC_RDPS_GeopotentialHeight_IsbL-0200_RLatLon0.09_PT014H.grib2 2026-04-30 14:43 262K
20260430T12Z_MSC_RDPS_GeopotentialHeight_IsbL-0225_RLatLon0.09_PT014H.grib2 2026-04-30 14:43 264K
20260430T12Z_MSC_RDPS_GeopotentialHeight_IsbL-0250_RLatLon0.09_PT014H.grib2 2026-04-30 14:43 265K
20260430T12Z_MSC_RDPS_GeopotentialHeight_IsbL-0275_RLatLon0.09_PT014H.grib2 2026-04-30 14:43 265K
20260430T12Z_MSC_RDPS_GeopotentialHeight_IsbL-0300_RLatLon0.09_PT014H.grib2 2026-04-30 14:43 264K
20260430T12Z_MSC_RDPS_GeopotentialHeight_IsbL-0350_RLatLon0.09_PT014H.grib2 2026-04-30 14:43 230K
20260430T12Z_MSC_RDPS_GeopotentialHeight_IsbL-0400_RLatLon0.09_PT014H.grib2 2026-04-30 14:43 227K
20260430T12Z_MSC_RDPS_GeopotentialHeight_IsbL-0450_RLatLon0.09_PT014H.grib2 2026-04-30 14:43 294K
20260430T12Z_MSC_RDPS_GeopotentialHeight_IsbL-0500_RLatLon0.09_PT014H.grib2 2026-04-30 14:43 289K
20260430T12Z_MSC_RDPS_GeopotentialHeight_IsbL-0550_RLatLon0.09_PT014H.grib2 2026-04-30 14:43 286K
20260430T12Z_MSC_RDPS_GeopotentialHeight_IsbL-0600_RLatLon0.09_PT014H.grib2 2026-04-30 14:43 254K
20260430T12Z_MSC_RDPS_GeopotentialHeight_IsbL-0650_RLatLon0.09_PT014H.grib2 2026-04-30 14:43 253K
20260430T12Z_MSC_RDPS_GeopotentialHeight_IsbL-0700_RLatLon0.09_PT014H.grib2 2026-04-30 14:43 333K
20260430T12Z_MSC_RDPS_GeopotentialHeight_IsbL-0750_RLatLon0.09_PT014H.grib2 2026-04-30 14:43 334K
20260430T12Z_MSC_RDPS_GeopotentialHeight_IsbL-0800_RLatLon0.09_PT014H.grib2 2026-04-30 14:43 339K
20260430T12Z_MSC_RDPS_GeopotentialHeight_IsbL-0850_RLatLon0.09_PT014H.grib2 2026-04-30 14:43 346K
20260430T12Z_MSC_RDPS_GeopotentialHeight_IsbL-0875_RLatLon0.09_PT014H.grib2 2026-04-30 14:43 346K
20260430T12Z_MSC_RDPS_GeopotentialHeight_IsbL-0900_RLatLon0.09_PT014H.grib2 2026-04-30 14:43 352K
20260430T12Z_MSC_RDPS_GeopotentialHeight_IsbL-0925_RLatLon0.09_PT014H.grib2 2026-04-30 14:43 387K
20260430T12Z_MSC_RDPS_GeopotentialHeight_IsbL-0950_RLatLon0.09_PT014H.grib2 2026-04-30 14:43 357K
20260430T12Z_MSC_RDPS_GeopotentialHeight_IsbL-0970_RLatLon0.09_PT014H.grib2 2026-04-30 14:43 365K
20260430T12Z_MSC_RDPS_GeopotentialHeight_IsbL-0985_RLatLon0.09_PT014H.grib2 2026-04-30 14:43 372K
20260430T12Z_MSC_RDPS_GeopotentialHeight_IsbL-1000_RLatLon0.09_PT014H.grib2 2026-04-30 14:43 383K
20260430T12Z_MSC_RDPS_GeopotentialHeight_IsbL-1015_RLatLon0.09_PT014H.grib2 2026-04-30 14:43 396K
20260430T12Z_MSC_RDPS_Humidex_Sfc_RLatLon0.09_PT014H.grib2 2026-04-30 14:43 2.2M
20260430T12Z_MSC_RDPS_IcePellets-Accum1h_Sfc_RLatLon0.09_PT014H.grib2 2026-04-30 14:43 1.9K
20260430T12Z_MSC_RDPS_IcePellets-Accum_Sfc_RLatLon0.09_PT014H.grib2 2026-04-30 14:43 5.8K
20260430T12Z_MSC_RDPS_KIndex_Sfc_RLatLon0.09_PT014H.grib2 2026-04-30 14:43 2.5M
20260430T12Z_MSC_RDPS_LatentHeatNetFlux_Sfc_RLatLon0.09_PT014H.grib2 2026-04-30 14:43 314K
20260430T12Z_MSC_RDPS_LiftedIndex-MU-VT_IsbL-0500_RLatLon0.09_PT014H.grib2 2026-04-30 14:43 2.4M
20260430T12Z_MSC_RDPS_NetLongwaveRadiationFlux-Accum_Sfc_RLatLon0.09_PT014H.grib2 2026-04-30 14:43 503K
20260430T12Z_MSC_RDPS_NetShortwaveRadiationFlux-Accum_Sfc_RLatLon0.09_PT014H.grib2 2026-04-30 14:43 590K
20260430T12Z_MSC_RDPS_PlanetaryBoundaryLayerHeight_Sfc_RLatLon0.09_PT014H.grib2 2026-04-30 14:43 1.1M
20260430T12Z_MSC_RDPS_Precip-Accum1h_Sfc_RLatLon0.09_PT014H.grib2 2026-04-30 14:43 1.1M
20260430T12Z_MSC_RDPS_Precip-Accum_Sfc_RLatLon0.09_PT014H.grib2 2026-04-30 14:43 1.5M
20260430T12Z_MSC_RDPS_PrecipRate_Sfc_RLatLon0.09_PT014H.grib2 2026-04-30 14:43 154K
20260430T12Z_MSC_RDPS_PrecipType-Instant_Sfc_RLatLon0.09_PT014H.grib2 2026-04-30 14:43 548K
20260430T12Z_MSC_RDPS_Pressure-Trend3h_Sfc_RLatLon0.09_PT014H.grib2 2026-04-30 14:43 1.2M
20260430T12Z_MSC_RDPS_Pressure_MSL_RLatLon0.09_PT014H.grib2 2026-04-30 14:43 320K
20260430T12Z_MSC_RDPS_Pressure_PVU-1.5_RLatLon0.09_PT014H.grib2 2026-04-30 14:43 2.3M
20260430T12Z_MSC_RDPS_Pressure_PVU-1_RLatLon0.09_PT014H.grib2 2026-04-30 14:43 2.4M
20260430T12Z_MSC_RDPS_Pressure_PVU-2_RLatLon0.09_PT014H.grib2 2026-04-30 14:43 2.4M
20260430T12Z_MSC_RDPS_Pressure_Sfc_RLatLon0.09_PT014H.grib2 2026-04-30 14:43 498K
20260430T12Z_MSC_RDPS_RadiativeTemp_Sfc_RLatLon0.09_PT014H.grib2 2026-04-30 14:43 303K
20260430T12Z_MSC_RDPS_Rain-Accum1h_Sfc_RLatLon0.09_PT014H.grib2 2026-04-30 14:43 569K
20260430T12Z_MSC_RDPS_Rain-Accum_Sfc_RLatLon0.09_PT014H.grib2 2026-04-30 14:43 1.1M
20260430T12Z_MSC_RDPS_RelativeHumidity_AGL-2m_RLatLon0.09_PT014H.grib2 2026-04-30 14:43 1.0M
20260430T12Z_MSC_RDPS_RelativeHumidity_IsbL-0010_RLatLon0.09_PT014H.grib2 2026-04-30 14:43 632K
20260430T12Z_MSC_RDPS_RelativeHumidity_IsbL-0020_RLatLon0.09_PT014H.grib2 2026-04-30 14:43 674K
20260430T12Z_MSC_RDPS_RelativeHumidity_IsbL-0030_RLatLon0.09_PT014H.grib2 2026-04-30 14:43 599K
20260430T12Z_MSC_RDPS_RelativeHumidity_IsbL-0050_RLatLon0.09_PT014H.grib2 2026-04-30 14:43 365K
20260430T12Z_MSC_RDPS_RelativeHumidity_IsbL-0100_RLatLon0.09_PT014H.grib2 2026-04-30 14:43 285K
20260430T12Z_MSC_RDPS_RelativeHumidity_IsbL-0150_RLatLon0.09_PT014H.grib2 2026-04-30 14:43 409K
20260430T12Z_MSC_RDPS_RelativeHumidity_IsbL-0175_RLatLon0.09_PT014H.grib2 2026-04-30 14:43 475K
20260430T12Z_MSC_RDPS_RelativeHumidity_IsbL-0200_RLatLon0.09_PT014H.grib2 2026-04-30 14:43 558K
20260430T12Z_MSC_RDPS_RelativeHumidity_IsbL-0225_RLatLon0.09_PT014H.grib2 2026-04-30 14:43 631K
20260430T12Z_MSC_RDPS_RelativeHumidity_IsbL-0250_RLatLon0.09_PT014H.grib2 2026-04-30 14:43 706K
20260430T12Z_MSC_RDPS_RelativeHumidity_IsbL-0275_RLatLon0.09_PT014H.grib2 2026-04-30 14:43 730K
20260430T12Z_MSC_RDPS_RelativeHumidity_IsbL-0300_RLatLon0.09_PT014H.grib2 2026-04-30 14:43 775K
20260430T12Z_MSC_RDPS_RelativeHumidity_IsbL-0350_RLatLon0.09_PT014H.grib2 2026-04-30 14:43 792K
20260430T12Z_MSC_RDPS_RelativeHumidity_IsbL-0400_RLatLon0.09_PT014H.grib2 2026-04-30 14:43 801K
20260430T12Z_MSC_RDPS_RelativeHumidity_IsbL-0450_RLatLon0.09_PT014H.grib2 2026-04-30 14:43 804K
20260430T12Z_MSC_RDPS_RelativeHumidity_IsbL-0500_RLatLon0.09_PT014H.grib2 2026-04-30 14:43 804K
20260430T12Z_MSC_RDPS_RelativeHumidity_IsbL-0550_RLatLon0.09_PT014H.grib2 2026-04-30 14:43 836K
20260430T12Z_MSC_RDPS_RelativeHumidity_IsbL-0600_RLatLon0.09_PT014H.grib2 2026-04-30 14:43 863K
20260430T12Z_MSC_RDPS_RelativeHumidity_IsbL-0650_RLatLon0.09_PT014H.grib2 2026-04-30 14:43 879K
20260430T12Z_MSC_RDPS_RelativeHumidity_IsbL-0700_RLatLon0.09_PT014H.grib2 2026-04-30 14:43 900K
20260430T12Z_MSC_RDPS_RelativeHumidity_IsbL-0750_RLatLon0.09_PT014H.grib2 2026-04-30 14:43 937K
20260430T12Z_MSC_RDPS_RelativeHumidity_IsbL-0800_RLatLon0.09_PT014H.grib2 2026-04-30 14:43 1.0M
20260430T12Z_MSC_RDPS_RelativeHumidity_IsbL-0850_RLatLon0.09_PT014H.grib2 2026-04-30 14:43 1.0M
20260430T12Z_MSC_RDPS_RelativeHumidity_IsbL-0875_RLatLon0.09_PT014H.grib2 2026-04-30 14:43 1.0M
20260430T12Z_MSC_RDPS_RelativeHumidity_IsbL-0900_RLatLon0.09_PT014H.grib2 2026-04-30 14:43 1.1M
20260430T12Z_MSC_RDPS_RelativeHumidity_IsbL-0925_RLatLon0.09_PT014H.grib2 2026-04-30 14:43 1.0M
20260430T12Z_MSC_RDPS_RelativeHumidity_IsbL-0950_RLatLon0.09_PT014H.grib2 2026-04-30 14:43 1.0M
20260430T12Z_MSC_RDPS_RelativeHumidity_IsbL-0970_RLatLon0.09_PT014H.grib2 2026-04-30 14:43 1.0M
20260430T12Z_MSC_RDPS_RelativeHumidity_IsbL-0985_RLatLon0.09_PT014H.grib2 2026-04-30 14:43 1.0M
20260430T12Z_MSC_RDPS_RelativeHumidity_IsbL-1000_RLatLon0.09_PT014H.grib2 2026-04-30 14:43 1.0M
20260430T12Z_MSC_RDPS_RelativeHumidity_IsbL-1015_RLatLon0.09_PT014H.grib2 2026-04-30 14:43 1.0M
20260430T12Z_MSC_RDPS_Runoff-Accum_Sfc_RLatLon0.09_PT014H.grib2 2026-04-30 14:43 58K
20260430T12Z_MSC_RDPS_SWEATIndex_Sfc_RLatLon0.09_PT014H.grib2 2026-04-30 14:43 2.4M
20260430T12Z_MSC_RDPS_SeeingIndex_EAtm_RLatLon0.09_PT014H.grib2 2026-04-30 14:43 1.0M
20260430T12Z_MSC_RDPS_SensibleHeatNetFlux_Sfc_RLatLon0.09_PT014H.grib2 2026-04-30 14:43 281K
20260430T12Z_MSC_RDPS_ShowalterIndex_IsbL-0500_RLatLon0.09_PT014H.grib2 2026-04-30 14:43 2.6M
20260430T12Z_MSC_RDPS_SkyTransparencyIndex_EAtm_RLatLon0.09_PT014H.grib2 2026-04-30 14:43 705K
20260430T12Z_MSC_RDPS_Snow-Accum1h_Sfc_RLatLon0.09_PT014H.grib2 2026-04-30 14:43 433K
20260430T12Z_MSC_RDPS_Snow-Accum_Sfc_RLatLon0.09_PT014H.grib2 2026-04-30 14:43 648K
20260430T12Z_MSC_RDPS_SnowDensity_Sfc_RLatLon0.09_PT014H.grib2 2026-04-30 14:43 171K
20260430T12Z_MSC_RDPS_SnowDepth_Sfc_RLatLon0.09_PT014H.grib2 2026-04-30 14:43 668K
20260430T12Z_MSC_RDPS_SoilTemp_DBS-0to10cm_RLatLon0.09_PT014H.grib2 2026-04-30 14:43 219K
20260430T12Z_MSC_RDPS_SoilTemp_Sfc_RLatLon0.09_PT014H.grib2 2026-04-30 14:43 270K
20260430T12Z_MSC_RDPS_SoilVolumetricIceContent_Sfc_RLatLon0.09_PT014H.grib2 2026-04-30 14:43 162K
20260430T12Z_MSC_RDPS_SoilVolumetricWaterContent_DBS-0to10cm_RLatLon0.09_PT014H.grib2 2026-04-30 14:43 268K
20260430T12Z_MSC_RDPS_SoilVolumetricWaterContent_DBS-0to1cm_RLatLon0.09_PT014H.grib2 2026-04-30 14:43 335K
20260430T12Z_MSC_RDPS_SpecificHumidity_AGL-120m_RLatLon0.09_PT014H.grib2 2026-04-30 14:43 479K
20260430T12Z_MSC_RDPS_SpecificHumidity_AGL-2m_RLatLon0.09_PT014H.grib2 2026-04-30 14:43 648K
20260430T12Z_MSC_RDPS_SpecificHumidity_AGL-40m_RLatLon0.09_PT014H.grib2 2026-04-30 14:43 486K
20260430T12Z_MSC_RDPS_SpecificHumidity_AGL-80m_RLatLon0.09_PT014H.grib2 2026-04-30 14:43 480K
20260430T12Z_MSC_RDPS_SpecificHumidity_IsbL-0001_RLatLon0.09_PT014H.grib2 2026-04-30 14:43 392K
20260430T12Z_MSC_RDPS_SpecificHumidity_IsbL-0005_RLatLon0.09_PT014H.grib2 2026-04-30 14:43 360K
20260430T12Z_MSC_RDPS_SpecificHumidity_IsbL-0010_RLatLon0.09_PT014H.grib2 2026-04-30 14:43 394K
20260430T12Z_MSC_RDPS_SpecificHumidity_IsbL-0020_RLatLon0.09_PT014H.grib2 2026-04-30 14:43 385K
20260430T12Z_MSC_RDPS_SpecificHumidity_IsbL-0030_RLatLon0.09_PT014H.grib2 2026-04-30 14:43 371K
20260430T12Z_MSC_RDPS_SpecificHumidity_IsbL-0050_RLatLon0.09_PT014H.grib2 2026-04-30 14:43 488K
20260430T12Z_MSC_RDPS_SpecificHumidity_IsbL-0100_RLatLon0.09_PT014H.grib2 2026-04-30 14:43 355K
20260430T12Z_MSC_RDPS_SpecificHumidity_IsbL-0150_RLatLon0.09_PT014H.grib2 2026-04-30 14:43 456K
20260430T12Z_MSC_RDPS_SpecificHumidity_IsbL-0175_RLatLon0.09_PT014H.grib2 2026-04-30 14:43 536K
20260430T12Z_MSC_RDPS_SpecificHumidity_IsbL-0200_RLatLon0.09_PT014H.grib2 2026-04-30 14:43 452K
20260430T12Z_MSC_RDPS_SpecificHumidity_IsbL-0225_RLatLon0.09_PT014H.grib2 2026-04-30 14:43 459K
20260430T12Z_MSC_RDPS_SpecificHumidity_IsbL-0250_RLatLon0.09_PT014H.grib2 2026-04-30 14:43 569K
20260430T12Z_MSC_RDPS_SpecificHumidity_IsbL-0275_RLatLon0.09_PT014H.grib2 2026-04-30 14:43 484K
20260430T12Z_MSC_RDPS_SpecificHumidity_IsbL-0300_RLatLon0.09_PT014H.grib2 2026-04-30 14:43 584K
20260430T12Z_MSC_RDPS_SpecificHumidity_IsbL-0350_RLatLon0.09_PT014H.grib2 2026-04-30 14:43 549K
20260430T12Z_MSC_RDPS_SpecificHumidity_IsbL-0400_RLatLon0.09_PT014H.grib2 2026-04-30 14:43 528K
20260430T12Z_MSC_RDPS_SpecificHumidity_IsbL-0450_RLatLon0.09_PT014H.grib2 2026-04-30 14:43 578K
20260430T12Z_MSC_RDPS_SpecificHumidity_IsbL-0500_RLatLon0.09_PT014H.grib2 2026-04-30 14:43 511K
20260430T12Z_MSC_RDPS_SpecificHumidity_IsbL-0550_RLatLon0.09_PT014H.grib2 2026-04-30 14:43 585K
20260430T12Z_MSC_RDPS_SpecificHumidity_IsbL-0600_RLatLon0.09_PT014H.grib2 2026-04-30 14:43 643K
20260430T12Z_MSC_RDPS_SpecificHumidity_IsbL-0650_RLatLon0.09_PT014H.grib2 2026-04-30 14:43 562K
20260430T12Z_MSC_RDPS_SpecificHumidity_IsbL-0700_RLatLon0.09_PT014H.grib2 2026-04-30 14:43 605K
20260430T12Z_MSC_RDPS_SpecificHumidity_IsbL-0750_RLatLon0.09_PT014H.grib2 2026-04-30 14:43 670K
20260430T12Z_MSC_RDPS_SpecificHumidity_IsbL-0800_RLatLon0.09_PT014H.grib2 2026-04-30 14:43 730K
20260430T12Z_MSC_RDPS_SpecificHumidity_IsbL-0850_RLatLon0.09_PT014H.grib2 2026-04-30 14:43 794K
20260430T12Z_MSC_RDPS_SpecificHumidity_IsbL-0875_RLatLon0.09_PT014H.grib2 2026-04-30 14:43 820K
20260430T12Z_MSC_RDPS_SpecificHumidity_IsbL-0900_RLatLon0.09_PT014H.grib2 2026-04-30 14:43 837K
20260430T12Z_MSC_RDPS_SpecificHumidity_IsbL-0925_RLatLon0.09_PT014H.grib2 2026-04-30 14:43 839K
20260430T12Z_MSC_RDPS_SpecificHumidity_IsbL-0950_RLatLon0.09_PT014H.grib2 2026-04-30 14:43 699K
20260430T12Z_MSC_RDPS_SpecificHumidity_IsbL-0970_RLatLon0.09_PT014H.grib2 2026-04-30 14:43 686K
20260430T12Z_MSC_RDPS_SpecificHumidity_IsbL-0985_RLatLon0.09_PT014H.grib2 2026-04-30 14:43 675K
20260430T12Z_MSC_RDPS_SpecificHumidity_IsbL-1000_RLatLon0.09_PT014H.grib2 2026-04-30 14:43 666K
20260430T12Z_MSC_RDPS_SpecificHumidity_IsbL-1015_RLatLon0.09_PT014H.grib2 2026-04-30 14:43 657K
20260430T12Z_MSC_RDPS_SpecificHumidity_Sfc_RLatLon0.09_PT014H.grib2 2026-04-30 14:43 318K
20260430T12Z_MSC_RDPS_StormRelativeHelicity_EtaL-10000_RLatLon0.09_PT014H.grib2 2026-04-30 14:43 1.1M
20260430T12Z_MSC_RDPS_StormSeverityIndex_EtaL-10000_RLatLon0.09_PT014H.grib2 2026-04-30 14:43 1.1M
20260430T12Z_MSC_RDPS_Thickness_IsbL-0850to0700_RLatLon0.09_PT014H.grib2 2026-04-30 14:43 175K
20260430T12Z_MSC_RDPS_Thickness_IsbL-1000to0500_RLatLon0.09_PT014H.grib2 2026-04-30 14:43 197K
20260430T12Z_MSC_RDPS_Thickness_IsbL-1000to0850_RLatLon0.09_PT014H.grib2 2026-04-30 14:43 182K
20260430T12Z_MSC_RDPS_TotalCloudCover_Sfc_RLatLon0.09_PT014H.grib2 2026-04-30 14:43 652K
20260430T12Z_MSC_RDPS_TotalTotalsIndex_Sfc_RLatLon0.09_PT014H.grib2 2026-04-30 14:43 2.4M
20260430T12Z_MSC_RDPS_UVIndex-ClearSky_Sfc_RLatLon0.09_PT014H.grib2 2026-04-30 14:43 117K
20260430T12Z_MSC_RDPS_UVIndex_Sfc_RLatLon0.09_PT014H.grib2 2026-04-30 14:43 247K
20260430T12Z_MSC_RDPS_UpwardLongwaveRadiationFlux_NTAtm_RLatLon0.09_PT014H.grib2 2026-04-30 14:43 492K
20260430T12Z_MSC_RDPS_UpwardShortwaveRadiationFlux_NTAtm_RLatLon0.09_PT014H.grib2 2026-04-30 14:43 234K
20260430T12Z_MSC_RDPS_VerticalVelocity_IsbL-0250_RLatLon0.09_PT014H.grib2 2026-04-30 14:43 553K
20260430T12Z_MSC_RDPS_VerticalVelocity_IsbL-0500_RLatLon0.09_PT014H.grib2 2026-04-30 14:43 541K
20260430T12Z_MSC_RDPS_VerticalVelocity_IsbL-0700_RLatLon0.09_PT014H.grib2 2026-04-30 14:43 592K
20260430T12Z_MSC_RDPS_VerticalVelocity_IsbL-0850_RLatLon0.09_PT014H.grib2 2026-04-30 14:43 698K
20260430T12Z_MSC_RDPS_VerticalWindShear_EtaL-6500_RLatLon0.09_PT014H.grib2 2026-04-30 14:43 1.1M
20260430T12Z_MSC_RDPS_WindChill_Sfc_RLatLon0.09_PT014H.grib2 2026-04-30 14:43 1.1M
20260430T12Z_MSC_RDPS_WindDir_AGL-10m_RLatLon0.09_PT014H.grib2 2026-04-30 14:43 962K
20260430T12Z_MSC_RDPS_WindDir_AGL-120m_RLatLon0.09_PT014H.grib2 2026-04-30 14:43 603K
20260430T12Z_MSC_RDPS_WindDir_AGL-40m_RLatLon0.09_PT014H.grib2 2026-04-30 14:43 632K
20260430T12Z_MSC_RDPS_WindDir_AGL-80m_RLatLon0.09_PT014H.grib2 2026-04-30 14:43 614K
20260430T12Z_MSC_RDPS_WindDir_IsbL-0001_RLatLon0.09_PT014H.grib2 2026-04-30 14:43 316K
20260430T12Z_MSC_RDPS_WindDir_IsbL-0005_RLatLon0.09_PT014H.grib2 2026-04-30 14:43 370K
20260430T12Z_MSC_RDPS_WindDir_IsbL-0010_RLatLon0.09_PT014H.grib2 2026-04-30 14:43 383K
20260430T12Z_MSC_RDPS_WindDir_IsbL-0020_RLatLon0.09_PT014H.grib2 2026-04-30 14:43 425K
20260430T12Z_MSC_RDPS_WindDir_IsbL-0030_RLatLon0.09_PT014H.grib2 2026-04-30 14:43 414K
20260430T12Z_MSC_RDPS_WindDir_IsbL-0050_RLatLon0.09_PT014H.grib2 2026-04-30 14:43 411K
20260430T12Z_MSC_RDPS_WindDir_IsbL-0100_RLatLon0.09_PT014H.grib2 2026-04-30 14:43 429K
20260430T12Z_MSC_RDPS_WindDir_IsbL-0150_RLatLon0.09_PT014H.grib2 2026-04-30 14:43 431K
20260430T12Z_MSC_RDPS_WindDir_IsbL-0175_RLatLon0.09_PT014H.grib2 2026-04-30 14:43 448K
20260430T12Z_MSC_RDPS_WindDir_IsbL-0200_RLatLon0.09_PT014H.grib2 2026-04-30 14:43 457K
20260430T12Z_MSC_RDPS_WindDir_IsbL-0225_RLatLon0.09_PT014H.grib2 2026-04-30 14:43 462K
20260430T12Z_MSC_RDPS_WindDir_IsbL-0250_RLatLon0.09_PT014H.grib2 2026-04-30 14:43 464K
20260430T12Z_MSC_RDPS_WindDir_IsbL-0275_RLatLon0.09_PT014H.grib2 2026-04-30 14:43 487K
20260430T12Z_MSC_RDPS_WindDir_IsbL-0300_RLatLon0.09_PT014H.grib2 2026-04-30 14:43 484K
20260430T12Z_MSC_RDPS_WindDir_IsbL-0350_RLatLon0.09_PT014H.grib2 2026-04-30 14:43 500K
20260430T12Z_MSC_RDPS_WindDir_IsbL-0400_RLatLon0.09_PT014H.grib2 2026-04-30 14:43 510K
20260430T12Z_MSC_RDPS_WindDir_IsbL-0450_RLatLon0.09_PT014H.grib2 2026-04-30 14:43 523K
20260430T12Z_MSC_RDPS_WindDir_IsbL-0500_RLatLon0.09_PT014H.grib2 2026-04-30 14:43 538K
20260430T12Z_MSC_RDPS_WindDir_IsbL-0550_RLatLon0.09_PT014H.grib2 2026-04-30 14:43 561K
20260430T12Z_MSC_RDPS_WindDir_IsbL-0600_RLatLon0.09_PT014H.grib2 2026-04-30 14:43 592K
20260430T12Z_MSC_RDPS_WindDir_IsbL-0650_RLatLon0.09_PT014H.grib2 2026-04-30 14:43 640K
20260430T12Z_MSC_RDPS_WindDir_IsbL-0700_RLatLon0.09_PT014H.grib2 2026-04-30 14:43 691K
20260430T12Z_MSC_RDPS_WindDir_IsbL-0750_RLatLon0.09_PT014H.grib2 2026-04-30 14:43 738K
20260430T12Z_MSC_RDPS_WindDir_IsbL-0800_RLatLon0.09_PT014H.grib2 2026-04-30 14:43 796K
20260430T12Z_MSC_RDPS_WindDir_IsbL-0850_RLatLon0.09_PT014H.grib2 2026-04-30 14:43 858K
20260430T12Z_MSC_RDPS_WindDir_IsbL-0875_RLatLon0.09_PT014H.grib2 2026-04-30 14:43 883K
20260430T12Z_MSC_RDPS_WindDir_IsbL-0900_RLatLon0.09_PT014H.grib2 2026-04-30 14:43 902K
20260430T12Z_MSC_RDPS_WindDir_IsbL-0925_RLatLon0.09_PT014H.grib2 2026-04-30 14:43 910K
20260430T12Z_MSC_RDPS_WindDir_IsbL-0950_RLatLon0.09_PT014H.grib2 2026-04-30 14:43 911K
20260430T12Z_MSC_RDPS_WindDir_IsbL-0970_RLatLon0.09_PT014H.grib2 2026-04-30 14:43 916K
20260430T12Z_MSC_RDPS_WindDir_IsbL-0985_RLatLon0.09_PT014H.grib2 2026-04-30 14:43 925K
20260430T12Z_MSC_RDPS_WindDir_IsbL-1000_RLatLon0.09_PT014H.grib2 2026-04-30 14:43 941K
20260430T12Z_MSC_RDPS_WindDir_IsbL-1015_RLatLon0.09_PT014H.grib2 2026-04-30 14:43 956K
20260430T12Z_MSC_RDPS_WindGust-Max_AGL-10m_RLatLon0.09_PT014H.grib2 2026-04-30 14:43 1.0M
20260430T12Z_MSC_RDPS_WindGust-Min_AGL-10m_RLatLon0.09_PT014H.grib2 2026-04-30 14:43 951K
20260430T12Z_MSC_RDPS_WindGust_AGL-10m_RLatLon0.09_PT014H.grib2 2026-04-30 14:43 1.0M
20260430T12Z_MSC_RDPS_WindSpeed_AGL-10m_RLatLon0.09_PT014H.grib2 2026-04-30 14:43 822K
20260430T12Z_MSC_RDPS_WindSpeed_AGL-120m_RLatLon0.09_PT014H.grib2 2026-04-30 14:43 527K
20260430T12Z_MSC_RDPS_WindSpeed_AGL-40m_RLatLon0.09_PT014H.grib2 2026-04-30 14:43 657K
20260430T12Z_MSC_RDPS_WindSpeed_AGL-80m_RLatLon0.09_PT014H.grib2 2026-04-30 14:43 528K
20260430T12Z_MSC_RDPS_WindSpeed_IsbL-0001_RLatLon0.09_PT014H.grib2 2026-04-30 14:43 250K
20260430T12Z_MSC_RDPS_WindSpeed_IsbL-0005_RLatLon0.09_PT014H.grib2 2026-04-30 14:43 377K
20260430T12Z_MSC_RDPS_WindSpeed_IsbL-0010_RLatLon0.09_PT014H.grib2 2026-04-30 14:43 391K
20260430T12Z_MSC_RDPS_WindSpeed_IsbL-0020_RLatLon0.09_PT014H.grib2 2026-04-30 14:43 319K
20260430T12Z_MSC_RDPS_WindSpeed_IsbL-0030_RLatLon0.09_PT014H.grib2 2026-04-30 14:43 320K
20260430T12Z_MSC_RDPS_WindSpeed_IsbL-0050_RLatLon0.09_PT014H.grib2 2026-04-30 14:43 342K
20260430T12Z_MSC_RDPS_WindSpeed_IsbL-0100_RLatLon0.09_PT014H.grib2 2026-04-30 14:43 471K
20260430T12Z_MSC_RDPS_WindSpeed_IsbL-0150_RLatLon0.09_PT014H.grib2 2026-04-30 14:43 384K
20260430T12Z_MSC_RDPS_WindSpeed_IsbL-0175_RLatLon0.09_PT014H.grib2 2026-04-30 14:43 429K
20260430T12Z_MSC_RDPS_WindSpeed_IsbL-0200_RLatLon0.09_PT014H.grib2 2026-04-30 14:43 446K
20260430T12Z_MSC_RDPS_WindSpeed_IsbL-0225_RLatLon0.09_PT014H.grib2 2026-04-30 14:43 454K
20260430T12Z_MSC_RDPS_WindSpeed_IsbL-0250_RLatLon0.09_PT014H.grib2 2026-04-30 14:43 457K
20260430T12Z_MSC_RDPS_WindSpeed_IsbL-0275_RLatLon0.09_PT014H.grib2 2026-04-30 14:43 475K
20260430T12Z_MSC_RDPS_WindSpeed_IsbL-0300_RLatLon0.09_PT014H.grib2 2026-04-30 14:43 472K
20260430T12Z_MSC_RDPS_WindSpeed_IsbL-0350_RLatLon0.09_PT014H.grib2 2026-04-30 14:43 482K
20260430T12Z_MSC_RDPS_WindSpeed_IsbL-0400_RLatLon0.09_PT014H.grib2 2026-04-30 14:43 482K
20260430T12Z_MSC_RDPS_WindSpeed_IsbL-0450_RLatLon0.09_PT014H.grib2 2026-04-30 14:43 482K
20260430T12Z_MSC_RDPS_WindSpeed_IsbL-0500_RLatLon0.09_PT014H.grib2 2026-04-30 14:43 466K
20260430T12Z_MSC_RDPS_WindSpeed_IsbL-0550_RLatLon0.09_PT014H.grib2 2026-04-30 14:43 467K
20260430T12Z_MSC_RDPS_WindSpeed_IsbL-0600_RLatLon0.09_PT014H.grib2 2026-04-30 14:43 475K
20260430T12Z_MSC_RDPS_WindSpeed_IsbL-0650_RLatLon0.09_PT014H.grib2 2026-04-30 14:43 616K
20260430T12Z_MSC_RDPS_WindSpeed_IsbL-0700_RLatLon0.09_PT014H.grib2 2026-04-30 14:43 644K
20260430T12Z_MSC_RDPS_WindSpeed_IsbL-0750_RLatLon0.09_PT014H.grib2 2026-04-30 14:43 671K
20260430T12Z_MSC_RDPS_WindSpeed_IsbL-0800_RLatLon0.09_PT014H.grib2 2026-04-30 14:43 755K
20260430T12Z_MSC_RDPS_WindSpeed_IsbL-0850_RLatLon0.09_PT014H.grib2 2026-04-30 14:43 803K
20260430T12Z_MSC_RDPS_WindSpeed_IsbL-0875_RLatLon0.09_PT014H.grib2 2026-04-30 14:43 823K
20260430T12Z_MSC_RDPS_WindSpeed_IsbL-0900_RLatLon0.09_PT014H.grib2 2026-04-30 14:43 839K
20260430T12Z_MSC_RDPS_WindSpeed_IsbL-0925_RLatLon0.09_PT014H.grib2 2026-04-30 14:43 849K
20260430T12Z_MSC_RDPS_WindSpeed_IsbL-0950_RLatLon0.09_PT014H.grib2 2026-04-30 14:43 849K
20260430T12Z_MSC_RDPS_WindSpeed_IsbL-0970_RLatLon0.09_PT014H.grib2 2026-04-30 14:43 850K
20260430T12Z_MSC_RDPS_WindSpeed_IsbL-0985_RLatLon0.09_PT014H.grib2 2026-04-30 14:43 842K
20260430T12Z_MSC_RDPS_WindSpeed_IsbL-1000_RLatLon0.09_PT014H.grib2 2026-04-30 14:43 835K
20260430T12Z_MSC_RDPS_WindSpeed_IsbL-1015_RLatLon0.09_PT014H.grib2 2026-04-30 14:43 825K
20260430T12Z_MSC_RDPS_WindU_AGL-10m_RLatLon0.09_PT014H.grib2 2026-04-30 14:43 424K
20260430T12Z_MSC_RDPS_WindU_AGL-120m_RLatLon0.09_PT014H.grib2 2026-04-30 14:43 528K
20260430T12Z_MSC_RDPS_WindU_AGL-40m_RLatLon0.09_PT014H.grib2 2026-04-30 14:43 530K
20260430T12Z_MSC_RDPS_WindU_AGL-80m_RLatLon0.09_PT014H.grib2 2026-04-30 14:43 530K
20260430T12Z_MSC_RDPS_WindU_IsbL-0001_RLatLon0.09_PT014H.grib2 2026-04-30 14:43 240K
20260430T12Z_MSC_RDPS_WindU_IsbL-0005_RLatLon0.09_PT014H.grib2 2026-04-30 14:43 283K
20260430T12Z_MSC_RDPS_WindU_IsbL-0010_RLatLon0.09_PT014H.grib2 2026-04-30 14:43 293K
20260430T12Z_MSC_RDPS_WindU_IsbL-0020_RLatLon0.09_PT014H.grib2 2026-04-30 14:43 307K
20260430T12Z_MSC_RDPS_WindU_IsbL-0030_RLatLon0.09_PT014H.grib2 2026-04-30 14:43 310K
20260430T12Z_MSC_RDPS_WindU_IsbL-0050_RLatLon0.09_PT014H.grib2 2026-04-30 14:43 337K
20260430T12Z_MSC_RDPS_WindU_IsbL-0100_RLatLon0.09_PT014H.grib2 2026-04-30 14:43 427K
20260430T12Z_MSC_RDPS_WindU_IsbL-0150_RLatLon0.09_PT014H.grib2 2026-04-30 14:43 400K
20260430T12Z_MSC_RDPS_WindU_IsbL-0175_RLatLon0.09_PT014H.grib2 2026-04-30 14:43 423K
20260430T12Z_MSC_RDPS_WindU_IsbL-0200_RLatLon0.09_PT014H.grib2 2026-04-30 14:43 340K
20260430T12Z_MSC_RDPS_WindU_IsbL-0225_RLatLon0.09_PT014H.grib2 2026-04-30 14:43 347K
20260430T12Z_MSC_RDPS_WindU_IsbL-0250_RLatLon0.09_PT014H.grib2 2026-04-30 14:43 348K
20260430T12Z_MSC_RDPS_WindU_IsbL-0275_RLatLon0.09_PT014H.grib2 2026-04-30 14:43 362K
20260430T12Z_MSC_RDPS_WindU_IsbL-0300_RLatLon0.09_PT014H.grib2 2026-04-30 14:43 358K
20260430T12Z_MSC_RDPS_WindU_IsbL-0350_RLatLon0.09_PT014H.grib2 2026-04-30 14:43 367K
20260430T12Z_MSC_RDPS_WindU_IsbL-0400_RLatLon0.09_PT014H.grib2 2026-04-30 14:43 368K
20260430T12Z_MSC_RDPS_WindU_IsbL-0450_RLatLon0.09_PT014H.grib2 2026-04-30 14:43 470K
20260430T12Z_MSC_RDPS_WindU_IsbL-0500_RLatLon0.09_PT014H.grib2 2026-04-30 14:43 471K
20260430T12Z_MSC_RDPS_WindU_IsbL-0550_RLatLon0.09_PT014H.grib2 2026-04-30 14:43 473K
20260430T12Z_MSC_RDPS_WindU_IsbL-0600_RLatLon0.09_PT014H.grib2 2026-04-30 14:43 482K
20260430T12Z_MSC_RDPS_WindU_IsbL-0650_RLatLon0.09_PT014H.grib2 2026-04-30 14:43 486K
20260430T12Z_MSC_RDPS_WindU_IsbL-0700_RLatLon0.09_PT014H.grib2 2026-04-30 14:43 511K
20260430T12Z_MSC_RDPS_WindU_IsbL-0750_RLatLon0.09_PT014H.grib2 2026-04-30 14:43 535K
20260430T12Z_MSC_RDPS_WindU_IsbL-0800_RLatLon0.09_PT014H.grib2 2026-04-30 14:43 698K
20260430T12Z_MSC_RDPS_WindU_IsbL-0850_RLatLon0.09_PT014H.grib2 2026-04-30 14:43 612K
20260430T12Z_MSC_RDPS_WindU_IsbL-0875_RLatLon0.09_PT014H.grib2 2026-04-30 14:43 628K
20260430T12Z_MSC_RDPS_WindU_IsbL-0900_RLatLon0.09_PT014H.grib2 2026-04-30 14:43 641K
20260430T12Z_MSC_RDPS_WindU_IsbL-0925_RLatLon0.09_PT014H.grib2 2026-04-30 14:43 648K
20260430T12Z_MSC_RDPS_WindU_IsbL-0950_RLatLon0.09_PT014H.grib2 2026-04-30 14:43 648K
20260430T12Z_MSC_RDPS_WindU_IsbL-0970_RLatLon0.09_PT014H.grib2 2026-04-30 14:43 786K
20260430T12Z_MSC_RDPS_WindU_IsbL-0985_RLatLon0.09_PT014H.grib2 2026-04-30 14:43 781K
20260430T12Z_MSC_RDPS_WindU_IsbL-1000_RLatLon0.09_PT014H.grib2 2026-04-30 14:43 775K
20260430T12Z_MSC_RDPS_WindU_IsbL-1015_RLatLon0.09_PT014H.grib2 2026-04-30 14:43 814K
20260430T12Z_MSC_RDPS_WindV_AGL-10m_RLatLon0.09_PT014H.grib2 2026-04-30 14:43 421K
20260430T12Z_MSC_RDPS_WindV_AGL-120m_RLatLon0.09_PT014H.grib2 2026-04-30 14:43 524K
20260430T12Z_MSC_RDPS_WindV_AGL-40m_RLatLon0.09_PT014H.grib2 2026-04-30 14:43 525K
20260430T12Z_MSC_RDPS_WindV_AGL-80m_RLatLon0.09_PT014H.grib2 2026-04-30 14:43 524K
20260430T12Z_MSC_RDPS_WindV_IsbL-0001_RLatLon0.09_PT014H.grib2 2026-04-30 14:43 242K
20260430T12Z_MSC_RDPS_WindV_IsbL-0005_RLatLon0.09_PT014H.grib2 2026-04-30 14:43 283K
20260430T12Z_MSC_RDPS_WindV_IsbL-0010_RLatLon0.09_PT014H.grib2 2026-04-30 14:43 295K
20260430T12Z_MSC_RDPS_WindV_IsbL-0020_RLatLon0.09_PT014H.grib2 2026-04-30 14:43 310K
20260430T12Z_MSC_RDPS_WindV_IsbL-0030_RLatLon0.09_PT014H.grib2 2026-04-30 14:43 313K
20260430T12Z_MSC_RDPS_WindV_IsbL-0050_RLatLon0.09_PT014H.grib2 2026-04-30 14:43 338K
20260430T12Z_MSC_RDPS_WindV_IsbL-0100_RLatLon0.09_PT014H.grib2 2026-04-30 14:43 330K
20260430T12Z_MSC_RDPS_WindV_IsbL-0150_RLatLon0.09_PT014H.grib2 2026-04-30 14:43 396K
20260430T12Z_MSC_RDPS_WindV_IsbL-0175_RLatLon0.09_PT014H.grib2 2026-04-30 14:43 421K
20260430T12Z_MSC_RDPS_WindV_IsbL-0200_RLatLon0.09_PT014H.grib2 2026-04-30 14:43 436K
20260430T12Z_MSC_RDPS_WindV_IsbL-0225_RLatLon0.09_PT014H.grib2 2026-04-30 14:43 442K
20260430T12Z_MSC_RDPS_WindV_IsbL-0250_RLatLon0.09_PT014H.grib2 2026-04-30 14:43 444K
20260430T12Z_MSC_RDPS_WindV_IsbL-0275_RLatLon0.09_PT014H.grib2 2026-04-30 14:43 360K
20260430T12Z_MSC_RDPS_WindV_IsbL-0300_RLatLon0.09_PT014H.grib2 2026-04-30 14:43 356K
20260430T12Z_MSC_RDPS_WindV_IsbL-0350_RLatLon0.09_PT014H.grib2 2026-04-30 14:43 364K
20260430T12Z_MSC_RDPS_WindV_IsbL-0400_RLatLon0.09_PT014H.grib2 2026-04-30 14:43 468K
20260430T12Z_MSC_RDPS_WindV_IsbL-0450_RLatLon0.09_PT014H.grib2 2026-04-30 14:43 467K
20260430T12Z_MSC_RDPS_WindV_IsbL-0500_RLatLon0.09_PT014H.grib2 2026-04-30 14:43 468K
20260430T12Z_MSC_RDPS_WindV_IsbL-0550_RLatLon0.09_PT014H.grib2 2026-04-30 14:43 470K
20260430T12Z_MSC_RDPS_WindV_IsbL-0600_RLatLon0.09_PT014H.grib2 2026-04-30 14:43 479K
20260430T12Z_MSC_RDPS_WindV_IsbL-0650_RLatLon0.09_PT014H.grib2 2026-04-30 14:43 483K
20260430T12Z_MSC_RDPS_WindV_IsbL-0700_RLatLon0.09_PT014H.grib2 2026-04-30 14:43 507K
20260430T12Z_MSC_RDPS_WindV_IsbL-0750_RLatLon0.09_PT014H.grib2 2026-04-30 14:43 530K
20260430T12Z_MSC_RDPS_WindV_IsbL-0800_RLatLon0.09_PT014H.grib2 2026-04-30 14:43 565K
20260430T12Z_MSC_RDPS_WindV_IsbL-0850_RLatLon0.09_PT014H.grib2 2026-04-30 14:43 609K
20260430T12Z_MSC_RDPS_WindV_IsbL-0875_RLatLon0.09_PT014H.grib2 2026-04-30 14:43 625K
20260430T12Z_MSC_RDPS_WindV_IsbL-0900_RLatLon0.09_PT014H.grib2 2026-04-30 14:43 638K
20260430T12Z_MSC_RDPS_WindV_IsbL-0925_RLatLon0.09_PT014H.grib2 2026-04-30 14:43 784K
20260430T12Z_MSC_RDPS_WindV_IsbL-0950_RLatLon0.09_PT014H.grib2 2026-04-30 14:43 784K
20260430T12Z_MSC_RDPS_WindV_IsbL-0970_RLatLon0.09_PT014H.grib2 2026-04-30 14:43 783K
20260430T12Z_MSC_RDPS_WindV_IsbL-0985_RLatLon0.09_PT014H.grib2 2026-04-30 14:43 776K
20260430T12Z_MSC_RDPS_WindV_IsbL-1000_RLatLon0.09_PT014H.grib2 2026-04-30 14:43 815K
20260430T12Z_MSC_RDPS_WindV_IsbL-1015_RLatLon0.09_PT014H.grib2 2026-04-30 14:43 807K